Starlink 11646

operational
NORAD ID: 63186 Int'l Des: 2025-048 Owner: SPXS Country: US Constellation: starlink
LEOCIRCULAR

Starlink 11646について

説明を読み込み中...

リアルタイム位置

3D地球を読み込み中...

次回通過

高度履歴

Altitude vs Time

uPlot chart will show altitude changes over time

軌道要素

1 63186U 25048D 26095.44840743 .00230447 00000-0 17489-2 0 9990
2 63186 42.9992 158.2441 0000715 250.9428 109.1362 15.70855273 62732
Epoch: Apr 5, 2026 • Age: 9 hours

現在のステータス

高度 359.1 km
速度 7.69 km/s
衛星直下点 -15.89°S, 6.91°E
打ち上げ日 Mar 13, 2025
運用期間 1 years
タイプ internet

技術仕様

分類 Payload
質量 960.00 kg
乾燥質量 910.00 kg
総質量 960.00 kg
長さ 0.30 m
直径 4.10 m
スパン 29.00 m
形状 Box + pan
製造者 SPXS
バスタイプ Starlink V2MD
フェーズステータス In Orbit
所有者/国 SPXS/US

大規模コンステレーション

Loading constellations...